Regional Weather Roundup
Issued by NWS Bismarck, ND

Home | Current Version | Previous Version | Text Only | Print | Product List | Glossary On
Versions: 1 2 3 4 5 6 7 8 9 10 11 12 13 14 15 16 17 18 19 20 21 22 23 24 25 26 27 28 29 30 31 32 33 34 35 36 37 38 39 40 41 42 43 44 45 46 47 48 49 50
000
ASUS43 KBIS 251910
RWRBIS

NWR BROADCAST TEXT
NATIONAL WEATHER SERVICE BISMARCK ND
200 PM CDT SAT OCT 25 2014

NOTE: "FAIR" INDICATES FEW OR NO CLOUDS BELOW 12,000 FEET WITH NO
SIGNIFICANT WEATHER AND/OR OBSTRUCTIONS TO VISIBILITY.


CITY           SKY/WX    TMP DP  RH WIND       PRES   REMARKS
WILLISTON      SUNNY     59  28  30 SE7       30.06F
MINOT          SUNNY     58  25  28 S6        30.08F
MINOT AFB      SUNNY     59  25  27 SW5       30.07F HAZE
BISMARCK       SUNNY     62  31  31 SE6       30.12F
DICKINSON      SUNNY     62  28  27 SE10      30.06F
GARRISON         N/A     59  31  34 VRB7      30.10F
HETTINGER ARPT SUNNY     63  29  27 SE14      30.09F
JAMESTOWN      CLOUDY    60  30  32 NW6       30.10F
BEACH            N/A     63  28  27 MISG      30.04F
CARRINGTON     FAIR      57  25  28 NW9G17    30.11F
CROSBY         MOCLDY    55  30  38 S13       30.08F
HARVEY         FAIR      57  23  26 NW7       30.11F
HAZEN          FAIR      59  32  36 SE7       30.11F
LINTON         FAIR      59  32  36 SE6       30.12F
MANDAN         FAIR      59  32  36 S8        30.12F
OAKES            N/A     59  32  36 NW8       30.12F
RUGBY          FAIR      55  28  35 W6        30.10F
STANLEY        FAIR      57  30  35 S8        30.08F
TIOGA          CLOUDY    55  28  35 S9G17     30.11F
$$

CITY           SKY/WX    TMP DP  RH WIND       PRES   REMARKS
GRAND FORKS    MOSUNNY   59  25  27 NW17G23   30.06F
GRAND FORKS AF SUNNY     59  23  24 N15G25    30.07F
DEVILS LAKE    SUNNY     55  28  35 W13       30.08F
FARGO          SUNNY     60  28  29 NW15      30.09F
CANDO          FAIR      57  25  28 W15       30.09S
CAVALIER       FAIR      59  25  27 NW16G29   30.03F
GRAFTON        FAIR      57  27  30 NW20      30.05S
GWINNER        CLEAR     63  32  31 NW14      30.12F
LANGDON        FAIR      57  23  26 NW21      30.04F
ROLLA          FAIR      55  19  24 NW16      30.08S
WALHALLA         N/A     57  25  28 NW16G25   30.03F
$$

CITY           SKY/WX    TMP DP  RH WIND       PRES   REMARKS
ABERDEEN       SUNNY     64  31  28 VRB3      30.14F
MOBRIDGE       SUNNY     63  29  27 S7        30.10F
BUFFALO          N/A     64  31  28 SE15G25   29.99F
RAPID CITY     SUNNY     64  33  31 S18       30.08F
GLASGOW        SUNNY     61  33  35 E15       29.96F
SIDNEY         SUNNY     64  30  27 E13       30.05F
WOLF POINT     SUNNY     64  34  32 E8        29.99F
GLENDIVE       SUNNY     64  30  27 SE9       30.02F
MILES CITY     SUNNY     65  35  33 SE15      29.96F
BAKER          SUNNY     64  30  27 SE21      30.03F
$$

CITY           SKY/WX    TMP DP  RH WIND       PRES   REMARKS
BILLINGS       MOSUNNY   56  35  45 E3        29.93F
GREAT FALLS    PTSUNNY   55  43  63 CALM      29.82F
REGINA         MOSUNNY   52  34  50 SE5       30.04F
ESTEVAN        MOSUNNY   55  28  35 SW8       30.06F
$$




USA.gov is the U.S. government's official web portal to all federal, state and local government web resources and services.